weather.gov     
National Weather Service

Regional Weather Roundup
NWS Homepage
This page is being discontinued on March 12, 2014.
The same data is available at this site. Please update your bookmarks.
Thank you, and we apologize for the inconvenience.
Please send an email to SR-SRH.Webmaster@noaa.gov with any concerns.


Current Version
Previous Version:    01  02  03  04  05  06  07  08  09  10  11  12  13  14  15  16  17  18  19  20  21  22  23  24  25  26  27  
[Printable]
079
ASUS42 KTBW 300510
RWRFL
FLORIDA REGIONAL WEATHER ROUNDUP
NATIONAL WEATHER SERVICE TAMPA BAY RUSKIN FL
100 AM EDT WED JUL 30 2014

NOTE: "FAIR" INDICATES FEW OR NO CLOUDS BELOW 12,000 FEET WITH NO
SIGNIFICANT WEATHER AND/OR OBSTRUCTIONS TO VISIBILITY.


FLZ001>010-012>015-112-114-115-300600-
PANHANDLE FLORIDA

CITY           SKY/WX    TMP DP  RH WIND       PRES   REMARKS
PENSACOLA      MOCLDY    76  65  68 N6        30.01F
PENSACOLA NAS  CLEAR     75  67  76 N8        30.01S
MILTON NAS     CLEAR     74  63  68 N3        30.02S
CRESTVIEW      CLOUDY    76  64  66 N5        30.03F
DUKE FIELD     MOCLDY    75  68  79 CALM      30.02S
VALPARAISO     MOCLDY    77  65  64 N5        30.01F
MARY ESTHER    MOCLDY    76  63  64 N7        30.00F
TRI COUNTY     FAIR      68  67  96 CALM      30.02S
PANAMA CITY    FAIR      72  67  84 NW3       29.99F
TYNDALL AFB    CLEAR     73  68  84 N2        30.00F
APALACHICOLA   CLEAR     70  67  90 CALM      29.98F

STATION/POSITION SKY/WX   TEMP    WIND        PRES    WAVE   SWELL
                          AIR SEA DIR/SP/G            HT/PER HT/PER
                          (F)     (DEG/KT/KT) (MB)    (FT/S) (FT/S)
30.1N   87.6W              83 83   10/ 10/ 12 1016.2F   1/ 5
29.2N   88.2W              83 86  320/  8/ 10 1016.9
PANAMA CITY BEAC           76 80   10/  5/  7 1015.9F
CAPE SAN BLAS    NOT AVBL
TOWER C                    83      10/ 13/ 14 1014.9F
28.5N   84.5W              83 85  320/ 10/ 14 1014.9F   3/ 6   2/ 6

$$
FLZ011-016>038-118-127-128-134-139-239-300600-
NORTH FLORIDA

CITY           SKY/WX    TMP DP  RH WIND       PRES   REMARKS
MARIANNA       CLEAR     72  69  90 CALM      30.00S
TALLAHASSEE    NOT AVBL
PERRY          CLEAR     72  64  78 CALM      29.98S
CROSS CITY       N/A     72  68  87 CALM      29.96S
GAINESVILLE    CLEAR     73  66  78 NW3       29.96S
MAYPORT NAS    PTCLDY    80  64  58 W6        29.93S
JACKSONVILLE   PTCLDY    77  62  59 NW8       29.93S
JAX NAS        PTCLDY    84  60  44 NW9       29.94S
JAX CRAIG      CLEAR     77  64  64 NW7       29.93F
JAX CECIL      PTCLDY    77  63  61 NW7       29.95S
FERNANDINA BEA FAIR      77  64  65 NW3       29.92S
ST AUGUSTINE   MOCLDY    80  66  62 NW6       29.94S

STATION/POSITION SKY/WX   TEMP    WIND        PRES    WAVE   SWELL
                          AIR SEA DIR/SP/G            HT/PER HT/PER
                          (F)     (DEG/KT/KT) (MB)    (FT/S) (FT/S)
SHELL POINT                78     330/  6/  9   N/A
KEATON BEACH               77     340/  2/  4 1014.9F
CEDAR KEY                  83     350/  4/  6 1015.0R
FERNANDINA                 80 86  320/  5/  6 1013.0S
30.7N   81.3W                 85                N/A     2/ 9
MAYPORT                    81 85  300/  6/  8   N/A
31.4N   80.9W              83 85  100/  4/  6 1013.7F   2/ 9   2/ 9
ST AUGUSTINE               80     310/  7/  9 1014.2R

$$
FLZ040-043>046-052-053-057-058-063-144-300600-
INTERIOR CENTRAL FLORIDA

CITY           SKY/WX    TMP DP  RH WIND       PRES   REMARKS
OCALA          CLEAR     79  64  61 NW5       29.97S
LEESBURG       CLEAR     80  76  87 W6        29.97S
SANFORD        MOCLDY    77  76  96 W7        29.95S
ORLANDO EXEC   CLEAR     78  76  93 SW7       29.96S
ORLANDO INTL   CLEAR     77  77 100 SW5       29.98R
WINTER HAVEN   PTCLDY    77  75  93 S3        29.99R
LAKELAND         N/A     73  73 100 CALM      29.98S
BARTOW         FAIR      73 N/A N/A CALM      29.99R
OKEECHOBEE       N/A     73  73 100 MISG      29.99S

$$
FLZ041-047-054-059-064-141-147-300600-
EAST CENTRAL FLORIDA

CITY           SKY/WX    TMP DP  RH WIND       PRES   REMARKS
DAYTONA BEACH  PTCLDY    76  74  93 SW6       29.94S
DELAND         PTCLDY    75  73  94 MISG      29.96S
JFK SPACE CTR  PTCLDY    78  78 100 W8        29.95F
CAPE CANAVERAL CLEAR     78  75  89 W7        29.95S
PATRICK AFB    CLEAR     78  75  90 SW10      29.96S
MELBOURNE      PTCLDY    77  74  90 S5        29.97R
VERO BEACH     PTCLDY    75  73  93 S3        29.98R
FT PIERCE      PTCLDY    76  72  87 SW3       29.97F
STUART         PTCLDY    79  73  83 S3        29.99F

STATION/POSITION SKY/WX   TEMP    WIND        PRES    WAVE   SWELL
                          AIR SEA DIR/SP/G            HT/PER HT/PER
                          (F)     (DEG/KT/KT) (MB)    (FT/S) (FT/S)
28.5N   80.2W              80 82  240/ 12/ 14 1014.6R
28.9N   78.5W              84 84  220/ 10/ 12 1014.4F
TRIDENT PIER               79 84  220/  9/ 12 1014.0S
28.4N   80.5W                 82                N/A     1/ 9
27.6N   80.2W                 82                N/A     1/ 9

$$
FLZ050-056-061-142-242-148-248-149-249-151-251-155-255-
160-260-300600-
WEST CENTRAL FLORIDA

CITY           SKY/WX    TMP DP  RH WIND       PRES   REMARKS
CRYSTAL RIVER  FAIR      75  70  83 CALM      29.96S
INVERNESS      FAIR      75  70  83 CALM      29.97S
BROOKSVILLE    PTCLDY    76  75  97 CALM      29.97S
ZEPHYRHILLS    FAIR      72  72 100 CALM      29.98S
CLEARWATER     CLOUDY    83  76  79 NW7       29.96F
TAMPA INTL     PTCLDY    82  76  81 NW5       29.97S
TAMPA EXEC     PTCLDY    79  75  89 CALM      29.97F FOG
PLANT CITY     MOCLDY    79 N/A N/A CALM      29.99S
MACDILL AFB    MOCLDY    82  79  89 VRB2      29.97S FOG
ST PETERSBURG  PTCLDY    84  76  76 NW6       29.95S
SARASOTA       PTCLDY    84  74  71 W12       29.96S
VENICE         FAIR      84  75  74 W12       29.99S

STATION/POSITION SKY/WX   TEMP    WIND        PRES    WAVE   SWELL
                          AIR SEA DIR/SP/G            HT/PER HT/PER
                          (F)     (DEG/KT/KT) (MB)    (FT/S) (FT/S)
CEDAR KEY                  83     350/  4/  6 1015.0R
28.5N   84.5W              83 85  320/ 10/ 14 1014.9F   3/ 6   2/ 6
27.3N   84.3W                 87                N/A     4/ 6
CLEARWATER BEACH           85 87  320/ 13/ 15 1014.4S
MIDDLE TAMPA BAY           84     300/ 12/ 15 1015.1R
VENICE                     85 89  260/ 11/ 14 1014.7R

$$
FLZ066-069-070-075>078-162-262-165-265-300600-
SOUTHWEST FLORIDA AND KEYS

CITY           SKY/WX    TMP DP  RH WIND       PRES   REMARKS
PUNTA GORDA    PTCLDY    82  75  79 W3        30.00S
FT MYERS       PTCLDY    81  77  88 S3        29.98S
SOUTHWEST INTL PTCLDY    80  77  90 CALM      29.98F
NAPLES         MOCLDY    85  80  85 W7        29.98F HX  99
MARATHON       MOCLDY    85  74  69 W3        30.01S
KEY WEST NAS   PTCLDY    86  75  69 W5        30.01F HX  95
KEY WEST INTL  PTCLDY    86  74  67 W6        30.02S

STATION/POSITION SKY/WX   TEMP    WIND        PRES    WAVE   SWELL
                          AIR SEA DIR/SP/G            HT/PER HT/PER
                          (F)     (DEG/KT/KT) (MB)    (FT/S) (FT/S)
VENICE                     85 89  260/ 11/ 14 1014.7R
NAPLES                     85 92              1016.0S
DRY TORTUGAS               85     280/  7/  8 1016.4F
NW FL BAY                  87     290/  7/ 10 1016.1R
SAND KEY                   85     280/  5/  9 1016.5F
SOMBRERO KEY               86     260/  6/  7 1017.1F
LONG KEY                   87 91  270/  6/  7 1016.9S
MOLASSES REEF              86 86  280/  5/  6 1016.0F

$$
FLZ067-068-071>074-168-172>174-300600-
SOUTHEAST FLORIDA

CITY           SKY/WX    TMP DP  RH WIND       PRES   REMARKS
W PALM BEACH   MOCLDY    81  75  82 CALM      29.97F
FT LAUDER-EXEC PTCLDY    81  76  84 SW3       29.98F
FT LAUDERDALE  MOCLDY    82  74  76 CALM      29.98S
POMPANO BEACH  PTCLDY   N/A N/A N/A MISG      29.98F
PEMBROKE PINES MOCLDY    81  72  74 S3        30.00S
OPA LOCKA      PTCLDY    82  73  74 CALM      29.99F
MIAMI          MOCLDY    83  74  74 S5        29.99F
WEST KENDALL   MOCLDY    83  75  77 S3        29.99F
HOMESTEAD      MOCLDY    80  77  90 SE2       30.00S

STATION/POSITION SKY/WX   TEMP    WIND        PRES    WAVE   SWELL
                          AIR SEA DIR/SP/G            HT/PER HT/PER
                          (F)     (DEG/KT/KT) (MB)    (FT/S) (FT/S)
PORT EVERGLADES            82     190/  3/  4 1015.4
VIRGINIA KEY               85 89  260/  5/  7   N/A
LAKE WORTH                 82 83              1015.0F
FOWEY ROCKS                86 86  270/  9/ 10 1016.1F
SETTLEMENT POINT           81     100/ 11/ 13 1016.1R

$$





U.S. Dept. of Commerce
NOAA National Weather Service
1325 East West Highway
Silver Spring, MD 20910
E-mail: w-nws.webmaster@noaa.gov
Page last modified: May 16, 2007
NATIONAL WEATHER SERVICE: for Safety, for Work, for Fun - FOR LIFE